This demonstration page uses our WeatherBlox Daily Observations layout. Learn more.

Left ArrowRight Arrow

34.74481, -87.66753

Hourly Observations for January 17, 2022

Temp ( °F °C ) Dew Point ( °F °C ) Humidity (%) Winds ( mph kmh ) Pressure ( in mb ) Visibility ( mi km ) Precip ( " mm )
12:53 am 00:53 Clear 32 0 29 -1.7 88 88 W 9 15 29.84 1010 10 16 0.00 0.00
1:53 am 01:53 Mostly Clear 32 0 29 -1.7 88 88 W 8 13 29.84 1011 10 16 0.00 0.00
2:22 am 02:22 Mostly Cloudy 32 0 30 -1.1 92 92 W 8 13 29.88 1012 10 16 0.00 0.00
2:53 am 02:53 Cloudy 33 0.6 30 -1.1 89 89 W 9 15 29.86 1011 10 16 0.00 0.00
3:26 am 03:26 Cloudy 34 1.1 30 -1.1 85 85 WNW 13 20 29.89 1012 10 16 0.00 0.00
3:53 am 03:53 Cloudy 34 1.1 29 -1.7 82 82 WNW 15 24 29.88 1012 10 16 0.00 0.00
4:15 am 04:15 Cloudy 34 1.1 29 -1.7 82 82 NW 13 20 29.90 1012 10 16 0.00 0.00
4:53 am 04:53 Cloudy 34 1.1 29 -1.7 82 82 WNW 13 20 29.89 1012 10 16 0.00 0.00
5:53 am 05:53 Cloudy 34 1.1 30 -1.1 85 85 WNW 12 19 29.91 1013 10 16 0.00 0.00
6:53 am 06:53 Cloudy 34 1.1 30 -1.1 85 85 W 13 20 29.93 1013 10 16 0.00 0.00
7:53 am 07:53 Cloudy 35 1.7 29 -1.7 78 78 WNW 10 17 29.95 1014 10 16 0.00 0.00
8:53 am 08:53 Cloudy 35 1.7 29 -1.7 78 78 WNW 9 15 29.99 1016 10 16 0.00 0.00
9:53 am 09:53 Cloudy 36 2.2 29 -1.7 76 76 NW 9 15 30.02 1017 10 16 0.00 0.00
10:53 am 10:53 Cloudy 37 2.8 31 -0.6 79 79 WNW 12 19 30.03 1017 10 16 0.00 0.00
11:53 am 11:53 Cloudy 38 3.3 30 -1.1 73 73 NW 13 20 30.04 1017 10 16 0.00 0.00
12:53 pm 12:53 Cloudy 38 3.3 29 -1.7 70 70 WNW 13 20 30.03 1017 10 16 0.00 0.00
1:53 pm 13:53 Cloudy 38 3.3 30 -1.1 73 73 WNW 16 26 30.04 1017 10 16 0.00 0.00
2:53 pm 14:53 Cloudy 38 3.3 29 -1.7 70 70 W 15 24 30.05 1018 10 16 0.00 0.00
3:53 pm 15:53 Cloudy 38 3.3 29 -1.7 70 70 W 12 19 30.05 1018 10 16 0.00 0.00
4:53 pm 16:53 Cloudy 38 3.3 29 -1.7 70 70 WNW 8 13 30.06 1018 10 16 0.00 0.00
5:53 pm 17:53 Mostly Cloudy 37 2.8 29 -1.7 73 73 W 6 9 30.09 1019 10 16 0.00 0.00
6:53 pm 18:53 Mostly Cloudy 36 2.2 29 -1.7 76 76 WSW 3 6 30.11 1020 10 16 0.00 0.00
7:02 pm 19:02 Partly Cloudy 36 2.2 29 -1.7 76 76 SSW 5 7 30.12 1020 10 16 0.00 0.00
7:53 pm 19:53 Clear 32 0 28 -2.2 85 85 S 5 7 30.11 1020 10 16 0.00 0.00
8:53 pm 20:53 Clear 31 -0.6 29 -1.7 92 92 SSE 3 6 30.12 1020 10 16 0.00 0.00
9:53 pm 21:53 Clear 30 -1.1 27 -2.8 88 88 Calm 30.12 1020 9 14 0.00 0.00
10:53 pm 22:53 Clear 29 -1.7 27 -2.8 92 92 S 3 6 30.14 1021 9 14 0.00 0.00
11:53 pm 23:53 Clear 28 -2.2 25 -3.9 88 88 ESE 3 6 30.13 1020 7 11 0.00 0.00

Powered by AerisWeather